GW2634 Weather Reports


Display with metric or nautical units.
time (UTC)temp
F
wind
direction
speed
MPH
gust
MPH
rain 1hr
in
rain 24hr
in
rain mn
in
humidity
%
barometer
mb
20260503204557 66 37 4.0 9.0 0.00 0.00 0.00 57 1014.6
20260503203041 66 15 3.0 10.0 0.00 0.00 0.00 59 1014.6
20260503201542 67 9 3.0 8.0 0.00 0.00 0.00 56 1015.0
20260503200045 65 339 5.0 10.0 0.00 0.00 0.00 60 1015.2
20260503194543 66 338 4.0 7.0 0.00 0.00 0.00 60 1015.2
20260503193044 66 178 3.0 4.0 0.00 0.00 0.00 64 1015.2
20260503191544 65 233 2.0 5.0 0.00 0.00 0.00 64 1015.2
20260503190046 64 222 2.0 4.0 0.00 0.00 0.00 65 1015.5
20260503184541 63 198 2.0 5.0 0.00 0.00 0.00 66 1015.6
20260503183047 64 224 3.0 5.0 0.00 0.00 0.00 65 1015.8
20260503181546 65 176 2.0 6.0 0.00 0.00 0.00 63 1015.8
20260503180056 65 51 4.0 7.0 0.00 0.00 0.00 60 1015.9
20260503174542 65 18 3.0 6.0 0.00 0.00 0.00 61 1016.0
20260503173117 64 357 1.0 6.0 0.00 0.00 0.00 62 1016.0
20260503171546 64 11 3.0 6.0 0.00 0.00 0.00 63 1016.2
20260503081555 58 76 0.0 2.0 0.00 0.00 0.00 61 1016.2
20260503071543 58 0 0.0 0.0 0.00 0.00 0.00 63 1016.1
20260503054541 57 0 0.0 0.0 0.00 0.00 0.00 70 1015.8
20260503053041 57 0 0.0 1.0 0.00 0.00 0.00 68 1015.8
20260503051545 58 0 0.0 1.0 0.00 0.00 0.00 69 1015.9
20260503050045 58 0 0.0 1.0 0.00 0.00 0.00 70 1015.9
20260503044544 58 99 0.0 1.0 0.00 0.00 0.00 70 1015.9
20260503043042 58 0 0.0 1.0 0.00 0.00 0.00 71 1015.8
20260503041543 58 140 0.0 1.0 0.00 0.00 0.00 73 1015.7
20260503040048 58 0 0.0 1.0 0.00 0.00 0.00 72 1015.6
20260503034546 58 147 0.0 2.0 0.00 0.00 0.00 71 1015.5
20260503033042 59 0 0.0 1.0 0.00 0.00 0.00 70 1015.4
20260503031550 61 0 0.0 1.0 0.00 0.00 0.00 68 1015.3
20260503030041 62 0 0.0 2.0 0.00 0.00 0.00 65 1015.3
20260503024546 64 236 0.0 2.0 0.00 0.00 0.00 62 1015.2
20260503023041 67 337 2.0 8.0 0.00 0.00 0.00 51 1015.2
20260503021547 67 340 2.0 6.0 0.00 0.00 0.00 53 1015.3
20260503020051 69 341 0.0 6.0 0.00 0.00 0.00 49 1015.3
20260503014544 69 26 1.0 4.0 0.00 0.00 0.00 52 1015.4
20260503013043 67 297 0.0 3.0 0.00 0.00 0.00 57 1015.5
20260503011547 66 0 0.0 2.0 0.00 0.00 0.00 61 1015.7
20260503010041 66 248 1.0 4.0 0.00 0.00 0.00 63 1015.8
20260503004609 65 233 1.0 3.0 0.00 0.00 0.00 65 1015.9
20260503003042 64 222 1.0 3.0 0.00 0.00 0.00 65 1016.0
20260503001542 64 226 2.0 4.0 0.00 0.00 0.00 66 1016.0
20260503000058 63 182 2.0 5.0 0.00 0.00 0.00 69 1016.1
20260502234541 62 209 3.0 6.0 0.00 0.00 0.00 68 1016.5
20260502233045 63 221 3.0 5.0 0.00 0.00 0.00 67 1016.5
20260502231603 64 184 3.0 5.0 0.00 0.00 0.00 66 1016.6
20260502230044 67 238 2.0 5.0 0.00 0.00 0.00 62 1016.7
20260502224555 67 11 2.0 6.0 0.00 0.00 0.00 56 1016.8
20260502223041 66 326 4.0 7.0 0.00 0.00 0.00 58 1017.1
20260502221553 66 3 2.0 6.0 0.00 0.00 0.00 60 1017.3
20260502220048 65 342 3.0 7.0 0.00 0.00 0.00 62 1017.6
20260502214547 64 336 5.0 8.0 0.00 0.00 0.00 64 1017.6
20260502213042 65 333 3.0 7.0 0.00 0.00 0.00 63 1017.8
20260502211546 65 296 2.0 8.0 0.00 0.00 0.00 67 1017.9
20260502210042 63 306 1.0 4.0 0.00 0.00 0.00 71 1018.1